Location: Arena
(42.5007°N, 9.4650°E)
Time: 18:32:17
(UTC+00:00)

CZ-2C R/B - Pass Details

Date: 09 April 2020
Orbit: 639 x 705 km, 98.4° (Epoch: 31 May)

Event Time Altitude Azimuth Distance (km) Brightness Sun altitude
Rises 18:49:28 0° 20° (NNE) 3,074 7.1 -10.0°
Reaches altitude 10° 18:51:52 10° 28° (NNE) 2,143 6.3 -10.4°
Maximum altitude 18:56:17 41° 98° (E) 981 4.1 -11.2°
Drops below altitude 10° 19:00:36 10° 169° (S) 2,088 5.9 -11.9°
Sets 19:02:54 0° 177° (S) 2,985 6.8 -12.3°
